Regional Weather Roundup
Issued by NWS Mobile, AL

Current Version | Previous Version | Text Only | Print | Product List | Glossary On
Versions: 1 2 3 4 5 6 7 8 9 10 11 12 13 14 15 16 17 18 19 20 21 22 23 24 25 26 27
000
ASUS44 KMOB 301212
RWRMOB
REGIONAL WEATHER ROUNDUP
NATIONAL WEATHER SERVICE MOBILE AL
700 AM CDT MON MAY 30 2016

NOTE: "FAIR" INDICATES FEW OR NO CLOUDS BELOW 12,000 FEET WITH NO
      SIGNIFICANT WEATHER AND/OR OBSTRUCTIONS TO VISIBILITY.

  * THESE STATIONS ARE PART OF THE UNIVERSITY OF SOUTH ALABAMA
    MESONET AND ARE NOT UNDER NWS OR FAA QUALITY CONTROL.

ALZ061>064-301300-
COASTAL ALABAMA

CITY           SKY/WX    TMP DP  RH WIND       PRES   REMARKS
MOBILE REG APT MOSUNNY   72  71  97 NW5       30.03R
6HR MIN TEMP:  68; 6HR MAX TEMP:  73;

BROOKLEY FIELD SUNNY     74  71  91 CALM      30.04R
6HR MIN TEMP:  71; 6HR MAX TEMP:  75; 6HR PCP: TRACE;

USA CAMPUS*    NOT AVBL
DOG RIVER*     NOT AVBL


CITY           SKY/WX    TMP DP  RH WIND       PRES   REMARKS
MOUNT VERNON*  NOT AVBL
SARALAND*      NOT AVBL
BAY MINETTE*   NOT AVBL
LOXLEY*        NOT AVBL
ROBERTSDALE*   NOT AVBL
FAIRHOPE*      NOT AVBL
ELBERTA*       NOT AVBL
FOLEY*         NOT AVBL
GRAND BAY*     NOT AVBL
DAUPHIN ISLND* NOT AVBL
BON SCOUR NWR* NOT AVBL
GULF SHORES    MOSUNNY   72  72 100 N9        30.02R

$$

ALZ051>060-301300-
INTERIOR SOUTHWEST AND SOUTH CENTRAL ALABAMA

CITY           SKY/WX    TMP DP  RH WIND       PRES   REMARKS
GREENVILLE     SUNNY     69  65  86 CALM      30.02R
6HR MIN TEMP:  67; 6HR MAX TEMP:  71;

EVERGREEN      SUNNY     69  66  90 CALM      30.04R
6HR MIN TEMP:  66; 6HR MAX TEMP:  70;

CASTLEBERRY*   NOT AVBL
ATMORE*        NOT AVBL
DIXIE*         NOT AVBL
ANDALUSIA/OPP  SUNNY     76  68  76 CALM      30.03R
6HR MIN TEMP:  72; 6HR MAX TEMP:  76;

ANDALUSIA*     NOT AVBL
FLORALA APT    MOSUNNY   70  68  93 CALM      30.04R
6HR MIN TEMP:  68; 6HR MAX TEMP:  71;

FLORALA*       NOT AVBL

$$

FLZ001>006-301300-
WESTERN FLORIDA PANHANDLE

CITY           SKY/WX    TMP DP  RH WIND       PRES   REMARKS
PENSACOLA      MOSUNNY   75  69  81 CALM      30.01R
6HR MIN TEMP:  73; 6HR MAX TEMP:  77;

NAS PENSACOLA  NOT AVBL
MILTON         MOSUNNY   75  70  84 N6        30.02
6HR MIN TEMP:  67; 6HR MAX TEMP:  75;

WHTNG S FIELD    N/A    N/A N/A N/A MISG      30.02R


CITY           SKY/WX    TMP DP  RH WIND       PRES   REMARKS
WALNUT HILL*   NOT AVBL
JAY*           NOT AVBL
DUKE FIELD     CLOUDY    69  67  92 N1        30.01R
CRESTVIEW      MOSUNNY   68  66  93 CALM      30.03R
6HR MIN TEMP:  66; 6HR MAX TEMP:  72;

VALPARAISO     PTSUNNY   73  68  82 N3        30.00S
6HR MIN TEMP:  71; 6HR MAX TEMP:  73;

DESTIN         PTSUNNY   78  71  79 N5        30.01R
6HR MIN TEMP:  75; 6HR MAX TEMP:  80;


$$

MSZ076-079-301300-
INTERIOR SOUTHEAST MISSISSIPPI

CITY           SKY/WX    TMP DP  RH WIND       PRES   REMARKS
LEAKESVILLE*   NOT AVBL
AGRICOLA*      NOT AVBL

$$

MARINE OBSERVATIONS

STATION/POSITION TIME  TEMP    WIND        PRES    WAVE
                       AIR SEA DIR/SP/G            HT/PER
                 (UTC) (F)     (DEG/KT/KT) (MB)    (FT/S)
PASCAGOULA       1100   76     330/  3/  5 1015.5R
PETIT BOIS ISLND 1100   78     330/  8/  9 1016.4R
KATRINA CUT      1100   79     320/  9     1016.6R
CEDAR POINT      1100   76     340/  7     1015.9R
E DAUPHIN ISLAND 1100   79     290/  6/  7 1015.8R
MIDDLE BAY LIGHT 1100   78     310/  7     1015.9R
USCG MOBILE BAY  1100   73 80   10/  1/  2 1016.5R
STATE DOCKS      1100   74 81              1015.9R
MEAHER PARK      1100   74        CALM     1015.9R
FORT MORGAN      1100   79     330/  6/  7 1015.6R
12 S ORANGE BCH  1150   81 81              1015.6R   1/ 6
PENSACOLA BAY    1100      81  270/  3/  4 1016.2R
64 S DAUPHIN ISL 1100   78 80  280/  4/  6 1015.9R

$$

SELECTED LOCATIONS ACROSS THE REGION

CITY           SKY/WX    TMP DP  RH WIND       PRES   REMARKS
NEW ORLEANS    PTSUNNY   75  72  90 W3        30.03R
GULFPORT       MOSUNNY   74  70  87 NW7       30.01R
PASCAGOULA AP  SUNNY     72  70  93 CALM      30.02R
PASCAGOULA*    NOT AVBL
HATTIESBURG    SUNNY     71  67  87 CALM      30.04R
LAUREL         CLOUDY    72  66  83 CALM      30.05R
MERIDIAN       SUNNY     71  65  81 CALM      30.05R
JACKSON        MOSUNNY   70  65  84 CALM      30.06R
MONTGOMERY     SUNNY     71  67  87 CALM      30.02S
TROY           SUNNY     70  67  90 CALM      30.04R
KINSTON*       NOT AVBL
GENEVA*        NOT AVBL
ASHFORD*       NOT AVBL
DOTHAN         SUNNY     74  67  78 NW5       30.06R
PANAMA CITY    MOSUNNY   73  68  84 CALM      30.00R

$$





USA.gov is the U.S. government's official web portal to all federal, state and local government web resources and services.